Regional Weather Roundup
Issued by NWS

Home | Current Version | Previous Version | Text Only | Print | Product List | Glossary Off
Versions: 1 2 3 4 5 6 7 8 9 10 11 12 13 14 15 16 17 18 19 20 21 22 23 24 25 26 27 28 29 30 31 32 33 34 35 36 37 38 39 40 41 42 43 44 45 46 47 48 49 50

000
ASUS43 KIND 290709
RWRIN

WEATHER ROUNDUP FOR INDIANA
NATIONAL WEATHER SERVICE INDIANAPOLIS IN
300 AM EDT TUE JUL 29 2014

NOTE: "FAIR" INDICATES FEW OR NO CLOUDS BELOW 12,000 FEET WITH NO
SIGNIFICANT WEATHER AND/OR OBSTRUCTIONS TO VISIBILITY.

* - STATION DOES NOT REPORT WEATHER SUCH AS PRECIPITATION OR FOG.

+ - STATION NOT QUALITY CONTROLLED BY THE NATIONAL WEATHER SERVICE.
    USE DATA WITH CAUTION...ESPECIALLY DEWPOINT AND RELATIVE
    HUMIDITY OBSERVATIONS.

INZ001>003-010>013-019-020-290800-
NORTHWEST INDIANA

CITY           SKY/WX    TMP DP  RH WIND       PRES   REMARKS
GARY /AIRPORT/ CLEAR     56  54  92 CALM      30.05F
KNOX *+        MOCLDY    55  51  89 SW3       30.04S
LA PORTE +     CLEAR     53  49  88 NW3       30.05F
MICHIGAN CITY+ CLEAR     54  52  94 CALM      30.05S
MONTICELLO +   MOCLDY    51  51  97 CALM      30.05S
RENSSELAER +   CLOUDY    54  54 100 SW3       30.06F
VALPARAISO     PTCLDY    54  52  93 CALM      30.05F

$$

LMZ046-743>745-290800-
SOUTHERN LAKE MICHIGAN

STATION/POSITION TIME  TEMP WIND        PRES
                       AIR  DIR/SP/G
                 (UTC) (F)  (DEG/KT/KT) (MB)
MICHIGAN CITY    0700   63  340/  2/  4   N/A

$$

INZ004-005-014>016-021>024-290800-
NORTH CENTRAL INDIANA

CITY           SKY/WX    TMP DP  RH WIND       PRES   REMARKS
GOSHEN         CLEAR     50  47  89 CALM      30.04S
LOGANSPORT +   CLOUDY    54  48  82 CALM      30.06S
PERU/GRISSOM   CLOUDY    55  52  89 W5        30.04S
ROCHESTER +    MOCLDY    55  50  82 CALM      30.05F
SOUTH BEND     CLEAR     54  48  80 CALM      30.04F
WARSAW +       CLEAR     46  46 100 CALM      30.04S

$$

INZ006>009-017-018-025>027-290800-
NORTHEAST INDIANA

CITY           SKY/WX    TMP DP  RH WIND       PRES   REMARKS
ANGOLA *+      CLEAR     48  48 100 CALM      30.03S
AUBURN +       CLEAR     50  46  87 CALM      30.03F
FORT WAYNE     PTCLDY    52  49  89 NW3       30.04S
HUNTINGTON +   PTCLDY    49  48  95 CALM      30.03S

$$

INZ028-029-035-036-043>045-051>053-290800-
WEST CENTRAL INDIANA

CITY           SKY/WX    TMP DP  RH WIND       PRES   REMARKS
GREENCASTLE +  CLEAR     50  48  93 CALM      30.07F
LAFAYETTE      CLEAR     50  49  96 CALM      30.06S
TERRE HAUTE    CLEAR     53  49  86 CALM      30.08F

$$

INZ030>032-037>040-046>048-054>057-064-065-290800-
CENTRAL INDIANA

CITY           SKY/WX    TMP DP  RH WIND       PRES   REMARKS
CP ATTERBURY + CLEAR     50  46  87 CALM      30.06S
FRANKFORT +    CLOUDY    54  54 100 CALM      30.07
GREENWOOD *+   CLEAR     55  50  82 CALM      30.05F
INDIANAPOLIS   MOCLDY    54  48  80 NW6       30.04F
-EAGLE CREEK   PTCLDY    55  48  77 NW7       30.05S
KOKOMO *+      CLOUDY    52  48  87 NW3       30.05F
MARION +       PTCLDY    48  47  96 CALM      30.05F
MT COMFORT *+  CLEAR     50 N/A N/A N3        30.05S
SHELBYVILLE    CLEAR     52  47  83 NW3       30.04S
ZIONSVILLE +   CLOUDY    54  48  78 NW7       30.06S

$$

INZ033-034-041-042-049-050-058-059-290800-
EAST CENTRAL INDIANA

CITY           SKY/WX    TMP DP  RH WIND       PRES   REMARKS
MUNCIE         PTCLDY    51  48  89 NW6       30.04S

$$

INZ060-061-067>069-081>083-085>088-290800-
SOUTHWEST INDIANA

CITY           SKY/WX    TMP DP  RH WIND       PRES   REMARKS
EVANSVILLE     CLEAR     60  52  74 CALM      30.08S
WASHINGTON +   CLEAR     56  50  79 NW6       30.06F

$$

INZ062-063-066-070>080-084-089>092-290800-
SOUTH CENTRAL AND SOUTHEAST INDIANA

CITY           SKY/WX    TMP DP  RH WIND       PRES   REMARKS
BLOOMINGTON    PTCLDY    52  48  86 CALM      30.07S

$$



USA.gov is the U.S. government's official web portal to all federal, state and local government web resources and services.